PA3DZX-13 Weather Reports


Display with metric or nautical units.
time (UTC)temp
F
wind
direction
speed
MPH
gust
MPH
rain 1hr
in
rain 24hr
in
rain mn
in
humidity
%
barometer
mb
20260510182715 51 359 13.0 20.0 0.00 0.00 0.00 69 1011.1
20260510181214 53 5 11.0 20.0 0.00 0.00 0.00 67 1011.0
20260510175715 53 8 15.0 22.0 0.00 0.00 0.00 66 1011.0
20260510174214 53 0 13.0 20.0 0.00 0.00 0.00 66 1011.1
20260510172714 55 9 15.0 22.0 0.00 0.00 0.00 66 1011.2
20260510171213 55 357 13.0 22.0 0.00 0.00 0.00 66 1011.3
20260510165713 57 6 13.0 22.0 0.00 0.00 0.00 66 1011.3
20260510164213 57 356 15.0 22.0 0.00 0.00 0.00 64 1011.3
20260510162712 57 357 13.0 20.0 0.00 0.00 0.00 62 1011.5
20260510161212 59 7 13.0 20.0 0.00 0.00 0.00 61 1011.6
20260510155711 59 6 13.0 22.0 0.00 0.00 0.00 61 1011.7
20260510154211 60 7 13.0 20.0 0.00 0.00 0.00 59 1011.7
20260510152710 60 358 13.0 20.0 0.00 0.00 0.00 60 1011.8
20260510151210 60 355 13.0 20.0 0.00 0.00 0.00 57 1011.8
20260510145710 60 3 11.0 20.0 0.00 0.00 0.00 55 1012.0
20260510144210 62 345 13.0 20.0 0.00 0.00 0.00 56 1012.1
20260510142709 62 4 13.0 20.0 0.00 0.00 0.00 54 1012.2
20260510141209 62 350 13.0 20.0 0.00 0.00 0.00 53 1012.3
20260510135709 62 13 11.0 17.0 0.00 0.00 0.00 53 1012.4
20260510134208 62 11 11.0 17.0 0.00 0.00 0.00 54 1012.6
20260510132708 64 8 11.0 17.0 0.00 0.00 0.00 52 1012.7
20260510131207 62 9 11.0 17.0 0.00 0.00 0.00 54 1012.9
20260510125708 62 358 8.0 15.0 0.00 0.00 0.00 55 1012.9
20260510124207 62 357 11.0 17.0 0.00 0.00 0.00 53 1013.1
20260510122707 62 2 11.0 15.0 0.00 0.00 0.00 56 1013.3
20260510121206 62 353 8.0 15.0 0.00 0.00 0.00 60 1013.4
20260510115705 60 0 8.0 15.0 0.00 0.00 0.00 59 1013.5
20260510114204 60 338 8.0 15.0 0.00 0.00 0.00 63 1013.8
20260510112704 60 352 8.0 13.0 0.00 0.00 0.00 63 1013.9
20260510111202 59 1 8.0 15.0 0.00 0.00 0.00 65 1013.9
20260510105703 60 0 6.0 15.0 0.00 0.00 0.00 66 1013.9
20260510104202 59 352 8.0 13.0 0.00 0.00 0.00 69 1014.2
20260510102702 59 346 6.0 11.0 0.00 0.00 0.00 70 1014.3
20260510101201 60 352 8.0 15.0 0.00 0.00 0.00 67 1014.3
20260510095702 60 5 8.0 15.0 0.00 0.00 0.00 69 1014.4
20260510094200 59 12 6.0 11.0 0.00 0.00 0.00 70 1014.6
20260510092700 59 10 6.0 15.0 0.00 0.00 0.00 71 1014.6
20260510091200 59 9 11.0 15.0 0.00 0.00 0.00 69 1014.5
20260510085700 59 359 8.0 15.0 0.00 0.00 0.00 71 1014.5
20260510084159 57 353 6.0 11.0 0.00 0.00 0.00 76 1014.6
20260510082659 55 355 6.0 11.0 0.00 0.00 0.00 77 1014.6
20260510081158 55 343 6.0 8.0 0.00 0.00 0.00 81 1014.7
20260510075659 55 329 4.0 8.0 0.00 0.00 0.00 81 1014.7
20260510074158 53 320 4.0 4.0 0.00 0.00 0.00 86 1014.7
20260510072658 51 328 2.0 4.0 0.00 0.00 0.00 88 1014.8
20260510071158 50 345 2.0 4.0 0.00 0.00 0.00 92 1014.9
20260510065658 48 351 2.0 4.0 0.00 0.00 0.00 93 1014.8
20260510064157 46 334 2.0 6.0 0.00 0.00 0.00 97 1015.0
20260510062657 46 331 2.0 6.0 0.00 0.00 0.00 98 1015.0
20260510061156 46 345 2.0 6.0 0.00 0.00 0.00 99 1014.9
20260510055656 44 332 4.0 6.0 0.00 0.00 0.00 99 1014.9
20260510054155 44 355 0.0 2.0 0.00 0.00 0.00 99 1014.8
20260510052655 42 350 0.0 0.0 0.00 0.00 0.00 99 1014.9
20260510051154 41 279 0.0 0.0 0.00 0.00 0.00 99 1014.9
20260510045654 39 279 0.0 0.0 0.00 0.00 0.00 99 1014.9
20260510044154 39 279 0.0 0.0 0.00 0.00 0.00 99 1014.8
20260510042654 39 279 0.0 0.0 0.00 0.00 0.00 99 1014.8
20260510041153 39 279 0.0 2.0 0.00 0.00 0.00 99 1014.8
20260510035653 37 279 0.0 2.0 0.00 0.00 0.00 99 1014.9
20260510034153 37 81 0.0 0.0 0.00 0.00 0.00 99 1014.9
20260510032653 37 81 0.0 0.0 0.00 0.00 0.00 99 1015.0
20260510031153 39 81 0.0 0.0 0.00 0.00 0.00 99 1015.0
20260510025653 37 81 0.0 0.0 0.00 0.00 0.00 98 1015.1
20260510024153 39 81 0.0 0.0 0.00 0.00 0.00 99 1015.1
20260510022653 39 81 0.0 0.0 0.00 0.00 0.00 99 1015.1
20260510021153 39 81 0.0 0.0 0.00 0.00 0.00 99 1015.2
20260510015653 39 81 0.0 0.0 0.00 0.00 0.00 99 1015.2
20260510014153 41 81 0.0 0.0 0.00 0.00 0.00 99 1015.3
20260510012653 41 81 0.0 0.0 0.00 0.00 0.00 99 1015.2
20260510011153 41 81 0.0 0.0 0.00 0.00 0.00 99 1015.3
20260510005653 41 81 0.0 0.0 0.00 0.00 0.00 99 1015.4
20260510004153 41 81 0.0 0.0 0.00 0.00 0.00 99 1015.5
20260510002652 41 81 0.0 0.0 0.00 0.00 0.00 99 1015.6
20260510001152 42 81 0.0 2.0 0.00 0.00 0.00 99 1015.8
20260509235652 42 80 0.0 2.0 0.00 0.00 0.00 99 1015.9
20260509234153 42 80 0.0 2.0 0.00 0.00 0.00 99 1015.9
20260509232653 42 80 0.0 2.0 0.00 0.00 0.00 98 1016.0
20260509231151 42 81 0.0 2.0 0.00 0.00 0.00 98 1016.2
20260509225652 42 81 0.0 2.0 0.00 0.00 0.00 98 1016.3
20260509224151 44 81 0.0 2.0 0.00 0.00 0.00 96 1016.4
20260509222650 42 81 0.0 2.0 0.00 0.00 0.00 95 1016.3
20260509221151 46 313 0.0 0.0 0.00 0.00 0.00 94 1016.4
20260509215651 46 314 0.0 0.0 0.00 0.00 0.00 93 1016.3
20260509214150 48 313 0.0 0.0 0.00 0.00 0.00 87 1016.4
20260509212650 48 313 0.0 0.0 0.00 0.00 0.00 90 1016.5
20260509211149 50 313 0.0 0.0 0.00 0.00 0.00 85 1016.6
20260509205650 51 313 0.0 0.0 0.00 0.00 0.00 81 1016.8
20260509204149 51 313 0.0 0.0 0.00 0.00 0.00 80 1016.8
20260509202649 51 313 0.0 0.0 0.00 0.00 0.00 79 1016.8
20260509201149 53 313 0.0 0.0 0.00 0.00 0.00 72 1016.7
20260509195649 53 313 0.0 2.0 0.00 0.00 0.00 69 1016.4
20260509194148 55 314 2.0 4.0 0.00 0.00 0.00 64 1016.4
20260509192648 59 320 2.0 4.0 0.00 0.00 0.00 57 1016.4
20260509191147 59 330 4.0 6.0 0.00 0.00 0.00 53 1016.3
20260509185647 62 316 2.0 4.0 0.00 0.00 0.00 51 1016.3
20260509184146 62 327 2.0 6.0 0.00 0.00 0.00 50 1016.4